Port Lavaca, TX

6:16 AM CDT on May 29, 2017 (GMT -0500)
Port Lavaca

Weather History for KPKV - March, 2013

Change the Weather History Date:

Saturday, March 2, 2013

  Actual Average (KVCT) Record (KVCT)
Temperature  
Mean Temperature 49 °F -  
Max Temperature 61 °F 70 °F 95 °F (1909)
Min Temperature 37 °F 52 °F 21 °F (1980)
Degree Days  
Heating Degree Days 16    
Moisture  
Dew Point 28 °F    
Average Humidity 49    
Maximum Humidity 82    
Minimum Humidity 20    
Precipitation  
Precipitation 0.00 in - - ()
Sea Level Pressure  
Sea Level Pressure 30.32 in    
Wind  
Wind Speed 10 mph (North)    
Max Wind Speed 25 mph    
Max Gust Speed 34 mph    
Visibility 10 miles    
Events      
Averages and records for this station are not official NWS values.
T = Trace of Precipitation, MM = Missing Value Source: NWS Daily Summary

Daily Weather History Graph

Daily Weather History Graph

Search for Another Location

Airport or City:

Trip Planner

Search our weather history database for the weather conditions in past years. The results will help you decide how hot, cold, wet, or windy it might be!

Date:

Astronomy

Mar. 02, 2013 Rise Set
Actual Time 6:50 AM CST 6:27 PM CST
Civil Twilight 6:26 AM CST 6:51 PM CST
Nautical Twilight 5:59 AM CST 7:18 PM CST
Astronomical Twilight 5:32 AM CST 7:45 PM CST
Moon 11:37 PM CST (3/2) 9:47 AM CST (3/2)
Length of Visible Light 12h 24m
Length of Day
11h 37m
Waning Gibbous, 74% of the Moon is Illuminated
Mar 2
Waning Gibbous
Mar 4
Last Quarter
Mar 11
New
Mar 19
First Quarter
Mar 27
Full

Hourly Weather History & Observations

Time (CST) Temp. Windchill Dew Point Humidity Pressure Visibility Wind Dir Wind Speed Gust Speed Precip Events Conditions
12:35 AM 46.4 °F 42.9 °F 36.7 °F 69% 30.28 in 10.0 mi North 6.9 mph - N/A   Clear
12:55 AM 45.5 °F - 35.8 °F 69% 30.27 in 10.0 mi Calm Calm - N/A   Clear
1:15 AM 46.2 °F - 36.0 °F 67% 30.26 in 10.0 mi Calm Calm - N/A   Clear
1:35 AM 44.1 °F - 35.2 °F 71% 30.26 in 10.0 mi Calm Calm - N/A   Clear
1:55 AM 44.6 °F 40.2 °F 34.3 °F 67% 30.28 in 10.0 mi NNW 8.1 mph - N/A   Clear
2:15 AM 41.7 °F 37.3 °F 33.6 °F 73% 30.28 in 10.0 mi North 6.9 mph - N/A   Clear
2:35 AM 42.8 °F 38.6 °F 32.5 °F 67% 30.28 in 10.0 mi NNW 6.9 mph - N/A   Clear
2:55 AM 42.4 °F 38.1 °F 31.5 °F 65% 30.27 in 10.0 mi NNW 6.9 mph - N/A   Clear
3:15 AM 41.2 °F 36.6 °F 31.6 °F 69% 30.27 in 10.0 mi NNW 6.9 mph - N/A   Clear
3:35 AM 39.2 °F 33.6 °F 31.5 °F 74% 30.28 in 10.0 mi NNW 8.1 mph - N/A   Clear
3:55 AM 40.8 °F 35.6 °F 32.0 °F 71% 30.28 in 10.0 mi North 8.1 mph - N/A   Clear
4:15 AM 41.7 °F 35.6 °F 32.0 °F 68% 30.29 in 10.0 mi North 10.4 mph - N/A   Clear
4:35 AM 42.1 °F 36.1 °F 32.0 °F 67% 30.29 in 10.0 mi North 10.4 mph - N/A   Clear
4:55 AM 42.3 °F 36.8 °F 32.0 °F 67% 30.30 in 10.0 mi North 9.2 mph - N/A   Clear
5:15 AM 42.3 °F 36.8 °F 32.2 °F 67% 30.31 in 10.0 mi North 9.2 mph - N/A   Clear
5:35 AM 42.3 °F 36.8 °F 32.2 °F 67% 30.32 in 10.0 mi North 9.2 mph - N/A   Clear
5:55 AM 39.4 °F 34.5 °F 32.0 °F 75% 30.33 in 10.0 mi NNW 6.9 mph - N/A   Clear
6:15 AM 37.8 °F 33.3 °F 31.3 °F 77% 30.34 in 10.0 mi North 5.8 mph - N/A   Clear
6:35 AM 37.2 °F 31.9 °F 31.1 °F 79% 30.35 in 10.0 mi NNW 6.9 mph - N/A   Clear
6:55 AM 37.4 °F 32.8 °F 31.5 °F 79% 30.36 in 10.0 mi NNW 5.8 mph - N/A   Clear
7:15 AM 37.0 °F 31.0 °F 32.0 °F 82% 30.37 in 10.0 mi NNW 8.1 mph - N/A   Clear
7:35 AM 39.7 °F 33.7 °F 32.9 °F 77% 30.38 in 10.0 mi NNW 9.2 mph - N/A   Clear
7:55 AM 42.6 °F 37.2 °F 33.1 °F 69% 30.39 in 10.0 mi NNW 9.2 mph - N/A   Clear
8:15 AM 44.6 °F 38.8 °F 33.1 °F 64% 30.40 in 10.0 mi NNW 11.5 mph - N/A   Clear
8:35 AM 46.9 °F - 33.1 °F 59% 30.41 in 10.0 mi North 13.8 mph - N/A   Clear
8:55 AM 48.2 °F - 32.2 °F 54% 30.41 in 10.0 mi North 16.1 mph 24.2 mph N/A   Clear
9:15 AM 48.4 °F - 31.8 °F 53% 30.41 in 10.0 mi North 16.1 mph 25.3 mph N/A   Clear
9:35 AM 50.2 °F - 31.8 °F 49% 30.42 in 10.0 mi North 17.3 mph 21.9 mph N/A   Clear
9:55 AM 51.3 °F - 29.5 °F 43% 30.41 in 10.0 mi North 17.3 mph 26.5 mph N/A   Clear
10:15 AM 52.7 °F - 27.3 °F 38% 30.41 in 10.0 mi North 20.7 mph 27.6 mph N/A   Clear
10:35 AM 53.4 °F - 26.6 °F 36% 30.41 in 10.0 mi North 19.6 mph 25.3 mph N/A   Clear
10:55 AM 54.0 °F - 25.7 °F 34% 30.40 in 10.0 mi North 21.9 mph 27.6 mph N/A   Clear
11:15 AM 55.6 °F - 25.9 °F 32% 30.40 in 10.0 mi NNW 18.4 mph 26.5 mph N/A   Clear
11:35 AM 55.8 °F - 24.1 °F 29% 30.40 in 10.0 mi North 23.0 mph 28.8 mph N/A   Clear
11:55 AM 56.3 °F - 23.7 °F 28% 30.39 in 10.0 mi NNW 21.9 mph 29.9 mph N/A   Clear
12:35 PM 58.1 °F - 22.8 °F 26% 30.37 in 10.0 mi North 24.2 mph 31.1 mph N/A   Clear
12:55 PM 58.5 °F - 22.8 °F 25% 30.36 in 10.0 mi NNW 18.4 mph 29.9 mph N/A   Clear
1:15 PM 58.8 °F - 21.4 °F 24% 30.35 in 10.0 mi NNW 20.7 mph 32.2 mph N/A   Clear
1:35 PM 59.7 °F - 23.4 °F 25% 30.34 in 10.0 mi NNW 21.9 mph 32.2 mph N/A   Clear
1:55 PM 59.7 °F - 21.0 °F 22% 30.32 in 10.0 mi NNW 23.0 mph 34.5 mph N/A   Clear
2:35 PM 60.4 °F - 21.6 °F 22% 30.31 in 10.0 mi NW 25.3 mph 29.9 mph N/A   Clear
3:15 PM 61.2 °F - 19.9 °F 20% 30.30 in 10.0 mi NNW 24.2 mph 29.9 mph N/A   Clear
3:55 PM 61.9 °F - 20.5 °F 20% 30.29 in 10.0 mi North 23.0 mph 28.8 mph N/A   Clear
4:35 PM 61.3 °F - 19.4 °F 20% 30.28 in 10.0 mi NNW 19.6 mph 32.2 mph N/A   Clear
4:55 PM 61.0 °F - 19.0 °F 20% 30.28 in 10.0 mi NNW 18.4 mph - N/A   Clear
5:15 PM 60.8 °F - 19.6 °F 20% 30.28 in 10.0 mi NNW 20.7 mph - N/A   Clear
5:35 PM 60.1 °F - 19.9 °F 21% 30.28 in 10.0 mi North 17.3 mph - N/A   Clear
5:55 PM 59.2 °F - 20.1 °F 22% 30.28 in 10.0 mi North 15.0 mph 19.6 mph N/A   Clear
6:15 PM 57.7 °F - 21.0 °F 24% 30.29 in 10.0 mi North 10.4 mph - N/A   Clear
6:35 PM 55.0 °F - 21.0 °F 27% 30.30 in 10.0 mi North 8.1 mph - N/A   Clear
6:55 PM 51.6 °F - 22.1 °F 32% 30.30 in 10.0 mi NNE 4.6 mph - N/A   Clear
7:15 PM 49.3 °F - 23.0 °F 36% 30.30 in 10.0 mi NNE 6.9 mph - N/A   Clear
7:35 PM 49.1 °F - 25.0 °F 39% 30.30 in 10.0 mi NE 4.6 mph - N/A   Clear
7:55 PM 48.2 °F - 24.8 °F 40% 30.30 in 10.0 mi NE 5.8 mph - N/A   Clear
8:15 PM 48.6 °F - 26.1 °F 42% 30.30 in 10.0 mi ENE 3.5 mph - N/A   Clear
8:35 PM 48.2 °F - 30.2 °F 50% 30.30 in 10.0 mi ENE 4.6 mph - N/A   Clear
8:55 PM 48.0 °F - 28.8 °F 47% 30.31 in 10.0 mi ENE 5.8 mph - N/A   Clear
9:15 PM 46.9 °F - 27.7 °F 47% 30.31 in 10.0 mi ENE 6.9 mph - N/A   Clear
9:35 PM 44.2 °F 39.7 °F 26.8 °F 50% 30.32 in 10.0 mi ENE 8.1 mph - N/A   Clear
9:55 PM 45.0 °F 41.2 °F 29.3 °F 54% 30.32 in 10.0 mi East 6.9 mph - N/A   Clear
10:15 PM 46.8 °F - 29.3 °F 51% 30.32 in 10.0 mi East 6.9 mph - N/A   Clear
10:35 PM 45.3 °F 40.6 °F 28.2 °F 51% 30.31 in 10.0 mi East 9.2 mph - N/A   Clear
10:55 PM 46.0 °F 41.9 °F 28.4 °F 50% 30.31 in 10.0 mi East 8.1 mph - N/A   Clear
11:15 PM 46.6 °F - 28.2 °F 49% 30.31 in 10.0 mi East 9.2 mph - N/A   Clear
11:35 PM 47.8 °F - 27.5 °F 45% 30.29 in 10.0 mi East 5.8 mph - N/A   Clear
11:55 PM 45.9 °F 42.3 °F 26.6 °F 47% 30.29 in 10.0 mi East 6.9 mph - N/A   Clear